Regional Weather Roundup
Issued by NWS

Home | Current Version | Previous Version | Text Only | Print | Product List | Glossary On
Versions: 1 2 3 4 5 6 7 8 9 10 11 12 13 14 15 16 17 18 19 20 21 22 23 24 25 26 27 28 29 30 31 32 33 34 35 36 37 38 39 40 41 42 43 44 45 46 47 48 49 50
000
ASUS42 KTBW 261010
RWRFL
FLORIDA REGIONAL WEATHER ROUNDUP
NATIONAL WEATHER SERVICE TAMPA BAY RUSKIN FL
500 AM EST FRI DEC 26 2014

NOTE: "FAIR" INDICATES FEW OR NO CLOUDS BELOW 12,000 FEET WITH NO
SIGNIFICANT WEATHER AND/OR OBSTRUCTIONS TO VISIBILITY.


FLZ001>010-012>015-112-114-115-261100-
PANHANDLE FLORIDA

CITY           SKY/WX    TMP DP  RH WIND       PRES   REMARKS
PENSACOLA      FAIR      49  43  80 NE5       30.20F
MILTON NAS     PTCLDY    41  38  89 E7        30.21F WCI  36
CRESTVIEW      FAIR      35  34  96 CALM      30.24F
DUKE FIELD     FAIR      39  36  90 NE3       30.22F
VALPARAISO     MOCLDY    41  38  92 NE6       30.22F WCI  37
MARY ESTHER    PTCLDY    45  39  80 NE7       30.20F WCI  41
PANAMA CITY    FAIR      41  36  82 E7          N/A  WCI  36
TYNDALL AFB    PTCLDY    45  44  95 E5        30.23F WCI  43
APALACHICOLA   PTCLDY    46  40  79 NE8       30.23S WCI  42

STATION/POSITION SKY/WX   TEMP    WIND        PRES    WAVE   SWELL
                          AIR SEA DIR/SP/G            HT/PER HT/PER
                          (F)     (DEG/KT/KT) (MB)    (FT/S) (FT/S)
30.1N   87.6W              62 67  130/ 14/ 16 1021.5F   2/ 3   2/ 7
29.2N   88.2W              62 73  130/ 14/ 17 1021.1F   2/ 4   2/ 6
28.7N   86.0W              63 74  110/ 14/ 17 1022.5F   2/ 8   2/ 8
PANAMA CITY BEAC           49 61   80/  9/ 15 1023.4S
CAPE SAN BLAS    NOT AVBL
TOWER C                    57      90/ 12/ 14 1023.3F
28.5N   84.5W              62 71   90/ 12/ 14 1022.7F   2/ 8   2/ 8

$$
FLZ011-016>038-118-127-128-134-139-239-261100-
NORTH FLORIDA

CITY           SKY/WX    TMP DP  RH WIND       PRES   REMARKS
MARIANNA       PTCLDY    35  35 100 CALM      30.25R
TALLAHASSEE    FAIR      37  32  82 CALM      30.25S
PERRY          PTCLDY    38  37  95 CALM      30.26S
CROSS CITY       N/A     36  34  92 CALM      30.25S
LAKE CITY      FAIR      41  41 100 NE3       30.26R
GAINESVILLE    CLEAR     37  36  96 CALM      30.25S
MAYPORT NAS    CLEAR     48  46  93 NW5       30.25S
JACKSONVILLE   CLEAR     41  41 100 N3        30.25S
JAX NAS        CLEAR     49  42  77 NW6       30.26S
JAX CRAIG      CLEAR     42  40  92 CALM      30.25S
JAX CECIL      PTCLDY    34  32  93 CALM      30.26S
FERNANDINA BEA FAIR      46  45  93 CALM      30.25R
ST AUGUSTINE   CLEAR     44  42  93 CALM      30.25S

STATION/POSITION SKY/WX   TEMP    WIND        PRES    WAVE   SWELL
                          AIR SEA DIR/SP/G            HT/PER HT/PER
                          (F)     (DEG/KT/KT) (MB)    (FT/S) (FT/S)
SHELL POINT                45      30/  4/  5   N/A
KEATON BEACH               44      50/  4/  5 1024.5F
CEDAR KEY                  52      80/ 11/ 12 1024.4R
FERNANDINA                 48 60  330/  2/  5 1024.1R
30.7N   81.3W                 61                N/A     2/10
MAYPORT                    49 62  320/  4/  8   N/A
31.4N   80.9W              56 58   50/  8/ 10 1024.5S   1/ 8   2/ 8
ST AUGUSTINE               59      30/  5/  6 1024.4S

$$
FLZ040-043>046-052-053-057-058-063-144-261100-
INTERIOR CENTRAL FLORIDA

CITY           SKY/WX    TMP DP  RH WIND       PRES   REMARKS
OCALA          CLEAR     41  37  87 N3        30.23S
THE VILLAGES     N/A     46  46 100 NE3       30.13S
LEESBURG       CLEAR     49  46  90 NE5       30.23F
SANFORD        CLEAR     53  49  86 N5        30.22S
ORLANDO EXEC   CLEAR     54  49  83 N5        30.22S
ORLANDO INTL   CLEAR     53  51  93 N7        30.22S
WINTER HAVEN   CLEAR     54  50  86 N6        30.23S
LAKELAND       CLEAR     50  48  93 N5        30.22S
BARTOW         FAIR      54  48  82 N6        30.22F
OKEECHOBEE     CLOUDY    54  48  82 N8        30.19S

$$
FLZ041-047-054-059-064-141-147-261100-
EAST CENTRAL FLORIDA

CITY           SKY/WX    TMP DP  RH WIND       PRES   REMARKS
DAYTONA BEACH  PTCLDY    49  47  93 NW3       30.22F
DELAND         SUNNY    N/A N/A N/A CALM      30.23S
JFK SPACE CTR  CLEAR     54  52  93 NW2       30.20F
CAPE CANAVERAL CLEAR     56  54  91 NW5       30.19F
PATRICK AFB    CLEAR     60  56  87 N8        30.19F
MELBOURNE      CLEAR     53  50  89 NW6       30.19F
VERO BEACH     CLEAR     55  51  86 NW7       30.19S
FT PIERCE      CLEAR     56  53  90 NW5       30.17F
STUART         PTCLDY    59  55  88 NW7       30.17F

STATION/POSITION SKY/WX   TEMP    WIND        PRES    WAVE   SWELL
                          AIR SEA DIR/SP/G            HT/PER HT/PER
                          (F)     (DEG/KT/KT) (MB)    (FT/S) (FT/S)
28.5N   80.2W              68 75   20/ 10/ 16 1022.2F
28.9N   78.5W              69 77   30/ 10/ 16 1022.4S   3/ 7
TRIDENT PIER               58 67  340/  4/  6 1022.0F
28.4N   80.5W                 66                N/A     1/ 7
27.6N   80.2W                 75                N/A     3/ 4

$$
FLZ050-056-061-142-242-148-248-149-249-151-251-155-255-
160-260-261100-
WEST CENTRAL FLORIDA

CITY           SKY/WX    TMP DP  RH WIND       PRES   REMARKS
CRYSTAL RIVER  FAIR      43  43 100 CALM      30.23S
INVERNESS      FAIR      45  45 100 CALM      30.24R FOG
BROOKSVILLE    CLEAR     48  47  96 CALM      30.23S FOG
ZEPHYRHILLS    CLOUDY    48  48 100 CALM      30.23S
CLEARWATER     CLOUDY    57  51  80 NE6       30.21F
TAMPA INTL     CLOUDY    55  49  80 NE6       30.22F
TAMPA EXEC     MOCLDY    52  50  93 CALM      30.23R
PLANT CITY     MOCLDY    54 N/A N/A NE5       30.23S
MACDILL AFB    CLOUDY    54  54  99 NE8       30.21F
PETER O KNIGHT CLOUDY    55  52  88 NE7       30.22S
ST PETERSBURG  CLOUDY    58  51  78 E13       30.20F
SARASOTA       CLEAR     53  50  89 NE7       30.19S
VENICE         FAIR      54  52  94 NE10      30.20F

STATION/POSITION SKY/WX   TEMP    WIND        PRES    WAVE   SWELL
                          AIR SEA DIR/SP/G            HT/PER HT/PER
                          (F)     (DEG/KT/KT) (MB)    (FT/S) (FT/S)
CEDAR KEY                  52      80/ 11/ 12 1024.4R
28.5N   84.5W              62 71   90/ 12/ 14 1022.7F   2/ 8   2/ 8
27.3N   84.3W                 75                N/A     3/ 6
CLEARWATER BEACH           56 66   60/  6/  8 1022.8S
MIDDLE TAMPA BAY           59      70/ 14/ 16 1023.0S
VENICE                     55 67   50/ 10/ 13 1022.0F

$$
FLZ066-069-070-075>078-162-262-165-265-261100-
SOUTHWEST FLORIDA AND KEYS

CITY           SKY/WX    TMP DP  RH WIND       PRES   REMARKS
PUNTA GORDA    CLEAR     54  50  86 NE8       30.21S
FT MYERS       CLEAR     56  52  86 NE8       30.17S
SOUTHWEST INTL PTCLDY    56  51  84 NE9       30.18R
NAPLES         PTCLDY    58  53  84 NE10      30.15F
MARCO ISLAND   MOSUNNY   59  52  77 NE8       30.15F
MARATHON       CLOUDY    70  70 100 N9        30.11R
KEY WEST NAS   LGT RAIN  70  69  97 NE13      30.12R
KEY WEST INTL  LGT RAIN  70  69  97 NE8       30.12S

STATION/POSITION SKY/WX   TEMP    WIND        PRES    WAVE   SWELL
                          AIR SEA DIR/SP/G            HT/PER HT/PER
                          (F)     (DEG/KT/KT) (MB)    (FT/S) (FT/S)
VENICE                     55 67   50/ 10/ 13 1022.0F
NAPLES                     59 75   30/  5/  7 1021.7F
26.0N   85.6W              71 74   80/ 14/ 16 1020.1F   3/ 6   2/ 8
DRY TORTUGAS               72      80/ 15/ 16 1019.5F
NW FL BAY                  70      40/ 10/ 12 1020.2F
SAND KEY                   71      50/ 15/ 16 1019.6R
SOMBRERO KEY               73      40/ 15/ 17 1019.8S
LONG KEY                   72 74   60/ 14/ 15 1020.3F
MOLASSES REEF              76 76  100/ 13/ 14 1019.3F

$$
FLZ067-068-071>074-168-172>174-261100-
SOUTHEAST FLORIDA

CITY           SKY/WX    TMP DP  RH WIND       PRES   REMARKS
W PALM BEACH   CLOUDY    65  60  84 N9        30.14S
FT LAUDER-EXEC CLOUDY    67  60  78 N7        30.13F
FT LAUDERDALE  CLOUDY    66  61  84 N9        30.13S
POMPANO BEACH  CLOUDY    68  60  75 N7        30.13S
PEMBROKE PINES CLOUDY    67  60  78 N7        30.14S
OPA LOCKA      CLOUDY    67  59  75 N7        30.14S
MIAMI          CLOUDY    68  60  75 N3        30.13F
WEST KENDALL   CLOUDY    67  60  78 N6        30.14S
HOMESTEAD      DRIZZLE   68  61  77 N7        30.13S

STATION/POSITION SKY/WX   TEMP    WIND        PRES    WAVE   SWELL
                          AIR SEA DIR/SP/G            HT/PER HT/PER
                          (F)     (DEG/KT/KT) (MB)    (FT/S) (FT/S)
PORT EVERGLADES            68     320/  6/  8 1020.0
VIRGINIA KEY               68 74  340/  5/  8 1020.5S
LAKE WORTH                 66 75  330/  8/ 10 1020.2S
SETTLEMENT POINT           72      40/ 11/ 12 1021.2S

$$



USA.gov is the U.S. government's official web portal to all federal, state and local government web resources and services.